{"data":{"norad_id":65079,"intl_designator":"2025-167B","name":"STARLINK-34634","alt_names":[],"object_type":"PAYLOAD","status":"ACTIVE","operator":null,"country":"US","launch_date":"2025-08-04","launch_site_code":"AFETR","launch_vehicle":null,"mission":null,"orbit_class":"UNKNOWN","rcs_meters":null,"size_class":null,"mass_kg":null,"dimensions":null,"purposes":["comms"],"wikipedia_slug":null,"has_3d_model":false,"image_url":null,"decayed_at":null,"tle_current":{"epoch":"2026-05-25T01:25:19.517088Z","epoch_age_seconds":66037,"freshness":"FRESH","line1":"1 65079U 25167B   26145.05925367  .00014232  00000+0  43144-3 0  9993","line2":"2 65079  53.1602  29.0505 0001055 103.1277 256.9843 15.34407443 45213","mean_motion":15.34407443,"eccentricity":0.0001055,"inclination_deg":53.1602,"raan_deg":29.0505,"arg_perigee_deg":103.1277,"mean_anomaly_deg":256.9843,"bstar":0.00043144,"rev_number":4521,"period_min":93.847302850968,"perigee_km":461.95941182053,"apogee_km":463.40282444345,"semimajor_km":6840.818118132,"source":"CELESTRAK","updated_at":"2026-05-25T13:38:20.682345Z"}}}